SV4RJB-13 Weather Reports


Display with metric or nautical units.
time (UTC)temp
F
wind
direction
speed
MPH
gust
MPH
rain 1hr
in
rain 24hr
in
rain mn
in
humidity
%
barometer
mb
20260504002913 48 0.0 0.0 0.00 0.00 0.00 71 1007.9
20260504001913 47 0.0 0.0 0.00 0.00 0.00 74 1008.0
20260504000913 46 0.0 0.0 0.00 0.00 0.00 75 1007.9
20260503235913 46 0.0 0.0 0.00 0.00 0.00 77 1007.9
20260503234914 45 0.0 0.0 0.00 0.00 0.00 79 1007.8
20260503233913 46 0.0 0.0 0.00 0.00 0.00 77 1008.0
20260503232913 46 0.0 0.0 0.00 0.00 0.00 76 1008.1
20260503231913 46 0.0 0.0 0.00 0.00 0.00 75 1008.2
20260503230912 46 0.0 0.0 0.00 0.00 0.00 76 1008.2
20260503224912 46 0.0 0.0 0.00 0.00 0.00 76 1008.1
20260503222913 48 0.0 0.0 0.00 0.00 0.00 74 1008.1
20260503221913 47 0.0 0.0 0.00 0.00 0.00 77 1008.1
20260503220912 47 0.0 0.0 0.00 0.00 0.00 78 1008.2
20260503214912 48 0.0 0.0 0.00 0.00 0.00 76 1008.2
20260503212912 49 0.0 0.0 0.00 0.00 0.00 72 1008.1
20260503211912 50 0.0 0.0 0.00 0.00 0.00 72 1008.1
20260503210913 50 0.0 0.0 0.00 0.00 0.00 73 1008.2
20260503205912 48 0.0 0.0 0.00 0.00 0.00 76 1008.2
20260503204912 48 0.0 0.0 0.00 0.00 0.00 75 1008.2
20260503202913 49 0.0 0.0 0.00 0.00 0.00 75 1008.3
20260503201913 49 0.0 0.0 0.00 0.00 0.00 76 1008.3
20260503200914 49 0.0 0.0 0.00 0.00 0.00 75 1008.3
20260503195913 49 0.0 0.0 0.00 0.00 0.00 75 1008.4
20260503193913 51 0.0 0.0 0.00 0.00 0.00 69 1008.3
20260503192913 53 0.0 0.0 0.00 0.00 0.00 66 1008.3
20260503191913 53 0.0 0.0 0.00 0.00 0.00 66 1008.3
20260503190913 52 0.0 0.0 0.00 0.00 0.00 68 1008.2
20260503185914 51 0.0 0.0 0.00 0.00 0.00 71 1008.0
20260503184913 51 0.0 0.0 0.00 0.00 0.00 71 1008.0
20260503183912 50 0.0 0.0 0.00 0.00 0.00 72 1007.9
20260503181912 51 0.0 0.0 0.00 0.00 0.00 69 1007.7
20260503175913 53 0.0 0.0 0.00 0.00 0.00 65 1007.6
20260503174912 54 0.0 0.0 0.00 0.00 0.00 60 1007.6
20260503173912 55 0.0 0.0 0.00 0.00 0.00 57 1007.6
20260503172912 56 0.0 0.0 0.00 0.00 0.00 53 1007.5
20260503171913 56 0.0 0.0 0.00 0.00 0.00 51 1007.4
20260503170913 56 0.0 0.0 0.00 0.00 0.00 51 1007.3
20260503150913 56 0.0 0.0 0.00 0.00 0.00 49 1007.3
20260503130912 56 0.0 0.0 0.00 0.00 0.00 51 1008.3
20260503080914 62 0.0 0.0 0.00 0.00 0.00 49 1007.4
20260503072913 57 0.0 0.0 0.00 0.00 0.00 65 1007.3
20260503071912 56 0.0 0.0 0.00 0.00 0.00 68 1007.3
20260503054911 58 0.0 0.0 0.00 0.00 0.00 63 1006.5
20260503052912 50 0.0 0.0 0.00 0.00 0.00 80 1006.7
20260503051913 51 0.0 0.0 0.00 0.00 0.00 78 1006.8
20260503050912 48 0.0 0.0 0.00 0.00 0.00 82 1006.5
20260503044913 48 0.0 0.0 0.00 0.00 0.00 80 1006.6
20260503043912 50 0.0 0.0 0.00 0.00 0.00 77 1006.7
20260503041913 48 0.0 0.0 0.00 0.00 0.00 80 1006.5
20260503040913 49 0.0 0.0 0.00 0.00 0.00 79 1006.4
20260503035912 49 0.0 0.0 0.00 0.00 0.00 80 1006.2
20260503034912 48 0.0 0.0 0.00 0.00 0.00 81 1006.2
20260503031913 47 0.0 0.0 0.00 0.00 0.00 84 1005.9
20260503030913 47 0.0 0.0 0.00 0.00 0.00 84 1006.1
20260503025913 48 0.0 0.0 0.00 0.00 0.00 81 1006.0
20260503024913 50 0.0 0.0 0.00 0.00 0.00 75 1006.1
20260503023912 50 0.0 0.0 0.00 0.00 0.00 75 1005.8
20260503022913 49 0.0 0.0 0.00 0.00 0.00 76 1005.8
20260503021913 50 0.0 0.0 0.00 0.00 0.00 73 1006.0
20260503020913 50 0.0 0.0 0.00 0.00 0.00 74 1006.0
20260503015912 47 0.0 0.0 0.00 0.00 0.00 79 1005.9
20260503014911 48 0.0 0.0 0.00 0.00 0.00 78 1005.9
20260503012912 49 0.0 0.0 0.00 0.00 0.00 77 1005.9
20260503010912 49 0.0 0.0 0.00 0.00 0.00 82 1006.3
20260503005912 48 0.0 0.0 0.00 0.00 0.00 84 1006.4
20260503004912 48 0.0 0.0 0.00 0.00 0.00 83 1006.4